HAWK-2B (47508 NORAD) Tracking and Keplerian Element Data

This shows tracking and keplerian element data for the satellite.

Feedback or suggestion? Click here.




ElementValue
Catalog47508
NameHAWK-2B
Epoch Orbit1198
Epoch Day101.89273525
Epoch Year2021
RAAN164.2026
Inclination97.4945
Eccentricity0.0010101
Argument of Perigee346.5034
Mean Anonmoly13.5925
Mean Motion15.12144992
Decay Rate3.82E-06
L11 47508U 21006CZ 21101.89273525 .00000382 00000-0 25875-4 0 9993
L22 47508 97.4945 164.2026 0010101 346.5034 13.5925 15.12144992 11985

Live tracking and technical data element details for HAWK-2B (NORAD 47508). HAWK-2B can be tracked NOW for your location showing map with azimuth and elevation plus other details from your city location.

Track the satellite on the map from your city or location and see movement details for azimuth, elevation, latitude, longitude, range, height, and movement on the map or in text.







IsCatalogInMostPopularTable: catalog: 47508, numindb: 14
Update: records affected: 1



GetName: 47508 HAWK-2B

Hit Count: updated at: Tue, 13 Apr 2021 03:44:51 GMT